Location: Artiguedieu
(43.5000°N, 0.5454°E)
Time: 13:08:25
(UTC+00:00)

Cosmos 1833 Rocket - Pass Details

Date: 06 December 2020
Orbit: 834 x 838 km, 71.0° (Epoch: 28 January)

Event Time Altitude Azimuth Distance (km) Brightness Sun altitude
Exits shadow 04:57:12 19° 352° (N) 1,919 4.4 -24.4°
Maximum altitude 05:01:05 47° 59° (ENE) 1,096 3.5 -23.8°
Drops below altitude 10° 05:06:28 10° 133° (SE) 2,439 5.9 -22.8°
Sets 05:08:59 0° 139° (SE) 3,369 6.6 -22.3°
